| time (UTC) | temp C | wind direction | speed KPH | gust KPH | rain 1hr cm | rain 24hr cm | rain mn cm | humidity % | barometer mb |
| 20260510223103 | 18 | 261 | 8.0 | 24.1 | 0.00 | 1.09 | 0.00 | 65 | 1012.2 |
| 20260510221558 | 18 | 220 | 3.2 | 14.5 | 0.00 | 1.09 | 0.00 | 68 | 1012.0 |
| 20260510220055 | 18 | 203 | 1.6 | 22.5 | 0.00 | 1.09 | 0.00 | 69 | 1011.9 |
| 20260510214653 | 18 | 214 | 0.0 | 16.1 | 0.00 | 1.09 | 0.00 | 70 | 1011.7 |
| 20260510213053 | 18 | 195 | 0.0 | 8.0 | 0.00 | 1.27 | 1.09 | 70 | 1011.8 |
| 20260510211549 | 18 | 196 | 4.8 | 14.5 | 0.00 | 1.27 | 1.09 | 69 | 1011.8 |
| 20260510210048 | 19 | 184 | 0.0 | 12.9 | 0.00 | 1.27 | 1.09 | 68 | 1011.6 |
| 20260510204553 | 19 | 203 | 0.0 | 9.7 | 0.00 | 1.27 | 1.09 | 67 | 1011.4 |
| 20260510203047 | 20 | 181 | 1.6 | 11.3 | 0.00 | 1.55 | 1.09 | 66 | 1011.4 |
| 20260510201544 | 20 | 171 | 0.0 | 9.7 | 0.00 | 1.55 | 1.09 | 66 | 1011.5 |
| 20260510200044 | 20 | 191 | 1.6 | 11.3 | 0.00 | 1.55 | 1.09 | 67 | 1011.4 |
| 20260510194543 | 20 | 192 | 1.6 | 14.5 | 0.00 | 1.55 | 1.09 | 68 | 1011.5 |
| 20260510193045 | 20 | 129 | 0.0 | 16.1 | 0.00 | 1.65 | 1.09 | 68 | 1011.7 |
| 20260510191511 | 20 | 188 | 4.8 | 22.5 | 0.00 | 1.65 | 1.09 | 68 | 1011.9 |
| 20260510190008 | 20 | 169 | 1.6 | 19.3 | 0.00 | 1.65 | 1.09 | 68 | 1011.8 |
| 20260510184535 | 19 | 217 | 1.6 | 16.1 | 0.00 | 1.65 | 1.09 | 71 | 1012.0 |
| 20260510183032 | 18 | 187 | 0.0 | 14.5 | 0.00 | 1.65 | 1.09 | 73 | 1012.3 |
| 20260510181602 | 18 | 199 | 0.0 | 14.5 | 0.00 | 1.65 | 1.09 | 76 | 1012.3 |
| 20260510180057 | 18 | 207 | 0.0 | 12.9 | 0.00 | 1.65 | 1.09 | 75 | 1012.3 |
| 20260510174554 | 18 | 187 | 0.0 | 12.9 | 0.00 | 1.65 | 1.09 | 76 | 1012.4 |
| 20260510173051 | 17 | 202 | 3.2 | 16.1 | 0.00 | 1.65 | 1.09 | 75 | 1012.6 |
| 20260510171553 | 17 | 170 | 0.0 | 12.9 | 0.00 | 1.65 | 1.09 | 76 | 1012.9 |
| 20260510170055 | 17 | 188 | 0.0 | 9.7 | 0.00 | 1.65 | 1.09 | 78 | 1012.9 |
| 20260510164543 | 16 | 182 | 0.0 | 11.3 | 0.00 | 1.65 | 1.09 | 78 | 1013.0 |
| 20260510163042 | 16 | 203 | 0.0 | 12.9 | 0.00 | 1.65 | 1.09 | 78 | 1013.2 |
| 20260510161541 | 16 | 203 | 1.6 | 8.0 | 0.00 | 1.65 | 1.09 | 78 | 1013.2 |
| 20260510160046 | 16 | 61 | 0.0 | 9.7 | 0.00 | 1.65 | 1.09 | 80 | 1013.3 |
| 20260510154506 | 16 | 191 | 0.0 | 12.9 | 0.00 | 1.65 | 1.09 | 82 | 1013.3 |
| 20260510151559 | 14 | 151 | 0.0 | 8.0 | 0.00 | 1.65 | 1.09 | 86 | 1013.3 |
| 20260510150056 | 13 | 191 | 0.0 | 8.0 | 0.00 | 1.65 | 1.09 | 86 | 1013.4 |
| 20260510144553 | 13 | 191 | 0.0 | 0.0 | 0.00 | 1.65 | 1.09 | 86 | 1013.4 |
| 20260510143051 | 13 | 191 | 0.0 | 0.0 | 0.00 | 1.65 | 1.09 | 86 | 1013.4 |
| 20260510141532 | 13 | 191 | 0.0 | 0.0 | 0.00 | 1.65 | 1.09 | 87 | 1013.4 |
| 20260510140026 | 13 | 191 | 1.6 | 4.8 | 0.00 | 1.65 | 1.09 | 88 | 1013.5 |
| 20260510134514 | 13 | 191 | 0.0 | 0.0 | 0.00 | 1.65 | 1.09 | 89 | 1013.3 |
| 20260510133013 | 12 | 191 | 3.2 | 6.4 | 0.00 | 1.65 | 1.09 | 90 | 1013.5 |
| 20260510131510 | 12 | 147 | 0.0 | 8.0 | 0.00 | 1.65 | 1.09 | 91 | 1013.3 |
| 20260510130009 | 12 | 145 | 0.0 | 0.0 | 0.00 | 1.65 | 1.09 | 92 | 1013.2 |
| 20260510124507 | 11 | 126 | 0.0 | 0.0 | 0.00 | 1.65 | 1.09 | 92 | 1013.0 |
| 20260510123117 | 11 | 126 | 0.0 | 0.0 | 0.00 | 1.68 | 1.09 | 92 | 1013.1 |
| 20260510121503 | 11 | 112 | 0.0 | 6.4 | 0.00 | 1.68 | 1.09 | 92 | 1013.1 |
| 20260510120002 | 11 | 109 | 1.6 | 4.8 | 0.00 | 1.68 | 1.09 | 92 | 1013.1 |
| 20260510114540 | 11 | 194 | 0.0 | 1.6 | 0.00 | 1.68 | 1.09 | 92 | 1012.8 |
| 20260510113034 | 10 | 194 | 0.0 | 9.7 | 0.00 | 1.70 | 1.09 | 92 | 1012.9 |
| 20260510111526 | 10 | 194 | 0.0 | 9.7 | 0.00 | 1.70 | 1.09 | 92 | 1012.8 |
| 20260510110027 | 10 | 68 | 0.0 | 6.4 | 0.00 | 1.70 | 1.09 | 92 | 1012.5 |
| 20260510104533 | 10 | 131 | 0.0 | 0.0 | 0.00 | 1.70 | 1.09 | 92 | 1012.5 |
| 20260510103025 | 10 | 134 | 0.0 | 0.0 | 0.00 | 1.83 | 1.09 | 92 | 1012.7 |
| 20260510101523 | 10 | 194 | 0.0 | 0.0 | 0.00 | 1.83 | 1.09 | 92 | 1012.9 |
| 20260510100022 | 10 | 194 | 0.0 | 0.0 | 0.00 | 1.83 | 1.09 | 92 | 1012.6 |
| 20260510094534 | 10 | 194 | 0.0 | 0.0 | 0.00 | 1.83 | 1.09 | 92 | 1012.8 |
| 20260510093021 | 10 | 195 | 0.0 | 0.0 | 0.00 | 1.83 | 1.09 | 92 | 1012.9 |
| 20260510091520 | 10 | 195 | 0.0 | 4.8 | 0.00 | 1.83 | 1.09 | 92 | 1012.6 |
| 20260510090020 | 10 | 172 | 0.0 | 0.0 | 0.00 | 1.83 | 1.09 | 92 | 1012.4 |
| 20260510084517 | 10 | 171 | 0.0 | 0.0 | 0.00 | 1.83 | 1.09 | 92 | 1012.2 |
| 20260510083016 | 10 | 171 | 0.0 | 0.0 | 0.00 | 1.83 | 1.09 | 92 | 1012.1 |
| 20260510081616 | 10 | 170 | 0.0 | 0.0 | 0.00 | 1.83 | 1.09 | 92 | 1011.9 |
| 20260510080015 | 10 | 171 | 0.0 | 0.0 | 0.00 | 1.83 | 1.09 | 92 | 1012.0 |
| 20260510074514 | 10 | 171 | 0.0 | 0.0 | 0.00 | 1.83 | 1.09 | 92 | 1012.1 |
| 20260510073015 | 10 | 171 | 0.0 | 0.0 | 0.00 | 1.83 | 1.09 | 92 | 1012.2 |
| 20260510071512 | 10 | 171 | 0.0 | 6.4 | 0.00 | 1.83 | 1.09 | 92 | 1012.2 |
| 20260510070046 | 10 | 89 | 0.0 | 0.0 | 0.00 | 1.83 | 1.09 | 92 | 1011.9 |
| 20260510064541 | 10 | 89 | 0.0 | 0.0 | 0.00 | 1.83 | 1.09 | 92 | 1011.9 |
| 20260510063040 | 10 | 89 | 0.0 | 0.0 | 0.00 | 1.83 | 1.09 | 92 | 1011.8 |
| 20260510061538 | 10 | 89 | 0.0 | 0.0 | 0.00 | 1.83 | 1.09 | 92 | 1011.7 |
| 20260510060038 | 10 | 89 | 0.0 | 0.0 | 0.00 | 1.83 | 1.09 | 92 | 1012.0 |
| 20260510054546 | 10 | 89 | 0.0 | 0.0 | 0.00 | 1.83 | 1.09 | 92 | 1012.2 |
| 20260510053035 | 10 | 89 | 0.0 | 0.0 | 0.00 | 1.83 | 1.09 | 92 | 1012.1 |
| 20260510051535 | 10 | 89 | 0.0 | 0.0 | 0.00 | 1.83 | 1.09 | 92 | 1011.9 |
| 20260510050033 | 10 | 89 | 0.0 | 0.0 | 0.00 | 1.83 | 1.09 | 92 | 1011.5 |
| 20260510044541 | 10 | 89 | 0.0 | 0.0 | 0.00 | 1.83 | 1.09 | 92 | 1012.1 |
| 20260510043030 | 10 | 89 | 0.0 | 0.0 | 0.00 | 1.83 | 1.09 | 92 | 1012.0 |
| 20260510041530 | 10 | 89 | 0.0 | 0.0 | 0.00 | 1.83 | 1.09 | 92 | 1011.9 |
| 20260510040028 | 10 | 89 | 0.0 | 0.0 | 0.00 | 1.83 | 1.09 | 92 | 1012.0 |
| 20260510034527 | 10 | 89 | 0.0 | 0.0 | 0.00 | 1.83 | 1.09 | 92 | 1012.0 |
| 20260510033116 | 10 | 88 | 0.0 | 0.0 | 0.00 | 1.83 | 1.09 | 92 | 1011.8 |
| 20260510031557 | 10 | 87 | 0.0 | 0.0 | 0.03 | 1.83 | 1.09 | 92 | 1011.7 |
| 20260510030028 | 10 | 87 | 0.0 | 0.0 | 0.03 | 1.83 | 1.09 | 92 | 1012.2 |
| 20260510024522 | 10 | 87 | 0.0 | 0.0 | 0.03 | 1.83 | 1.09 | 92 | 1012.1 |
| 20260510023058 | 10 | 87 | 0.0 | 0.0 | 0.03 | 1.83 | 1.09 | 91 | 1012.1 |
| 20260510021552 | 10 | 87 | 0.0 | 4.8 | 0.00 | 1.80 | 1.07 | 91 | 1012.3 |
| 20260510014608 | 10 | 88 | 0.0 | 9.7 | 0.03 | 1.80 | 1.07 | 91 | 1012.3 |
| 20260510013059 | 10 | 87 | 0.0 | 6.4 | 0.05 | 1.80 | 1.07 | 91 | 1012.4 |
| 20260510011545 | 10 | 85 | 0.0 | 12.9 | 0.08 | 1.80 | 1.07 | 91 | 1012.7 |
| 20260510010030 | 11 | 220 | 0.0 | 6.4 | 0.10 | 1.78 | 1.04 | 91 | 1012.7 |
| 20260510004504 | 11 | 118 | 0.0 | 12.9 | 0.13 | 1.75 | 1.02 | 91 | 1012.8 |
| 20260510003002 | 11 | 121 | 0.0 | 0.0 | 0.20 | 1.75 | 1.02 | 91 | 1012.6 |
| 20260510001503 | 11 | 182 | 3.2 | 17.7 | 0.30 | 1.73 | 0.99 | 91 | 1012.6 |
| 20260510000100 | 11 | 96 | 0.0 | 0.0 | 0.38 | 1.68 | 0.94 | 91 | 1012.5 |
| 20260509234556 | 11 | 124 | 0.0 | 3.2 | 0.46 | 1.63 | 0.89 | 91 | 1012.6 |
| 20260509233055 | 11 | 122 | 1.6 | 8.0 | 0.46 | 1.55 | 0.81 | 91 | 1012.6 |
| 20260509231606 | 11 | 159 | 0.0 | 0.0 | 0.43 | 1.42 | 0.69 | 91 | 1012.5 |
| 20260509230053 | 11 | 160 | 0.0 | 0.0 | 0.46 | 1.30 | 0.56 | 91 | 1012.8 |
| 20260509224522 | 12 | 161 | 0.0 | 8.0 | 0.41 | 1.17 | 0.43 | 90 | 1012.9 |